Погода в Аллерое

Россия / Чеченская Республика     43°05′07″N   46°18′04″E
темп.,
°C
ветер,
м/с
пор.,
м/с
влажн.,
%
обл.,
%
осадки,
мм/ч
давл.,
гПа
погр.,
м
17 апреля, сб
сб1700:00+10ю33660 0.0 101929
03:00+9ю33625 0.0 101835
06:00+10ю335934 0.0 101844
09:00+18с1138100 0.0 1016792
12:00+18сз444596 0.0 10181234
15:00+16сз445595 0.0 10191349
18:00+13з2567100 0.0 1020553
21:00+10сз1385100 0.0 1021395
18 апреля, вс
вс1800:00+10сз1190100 0.0 1021173
03:00+9ссз1192100 0.1 1020155
06:00+8с1292100 0.0 1020209
09:00+12ссв2277100 0.0 1018447
12:00+15с326462 0.2 1016956
15:00+13ссв227196 1.0 1017783
18:00+12ссз1179100 0.4 101883
21:00+10ю4592100 2.2 1020187
19 апреля, пн
пн1900:00+10ююв228186 0.9 101734
03:00+10ююв2177100 0.9 101712
06:00+11ююв1169100 0.0 101711
09:00+17ссв225493 0.0 1016662
12:00+19ссв3348100 0.0 10151344
15:00+19св344774 0.0 10141417
18:00+15с126836 0.0 101440
21:00+13ююз217465 0.0 101513
20 апреля, вт
вт2000:00+12ююв117769 0.0 101418
03:00+12ююв227187 0.0 101231
06:00+13ю2265100 0.0 101133
09:00+23юв133561 0.0 1007423
12:00+28всв132788 0.0 10051140
15:00+28ссз2329100 0.0 10031603
18:00+21ююз1153100 0.0 100417
21:00+18ю3359100 0.2 100781
21 апреля, ср
ср2100:00+14зсз1276100 0.1 101254
03:00+12з378998 0.1 1014566
06:00+10з2793100 0.2 1017615
09:00+10зсз3692100 0.3 1018640
12:00+10зсз2589100 0.2 1019743
15:00+8юз2391100 2.4 1020355
18:00+8зсз239497 7.1 1021305
21:00+7зюз129599 8.8 1022205